Location: Street
(51.1247°N, 2.7429°W)
Time: 16:27:21
(UTC+00:00)

SR - Pass Details

Date: 04 December 2020
Orbit: 575 x 880 km, 66.7° (Epoch: 26 January)

Event Time Altitude Azimuth Distance (km) Brightness Sun altitude
Rises 18:48:09 0° 246° (WSW) 2,860 ? -24.4°
Reaches altitude 10° 18:50:30 10° 256° (WSW) 1,994 ? -24.8°
Maximum altitude 18:54:37 34° 322° (NW) 1,081 ? -25.4°
Enters shadow 18:55:51 29° 353° (N) 1,212 ? -25.6°
Drops below altitude 10° 18:59:04 10° 28° (NNE) 2,164 - -26.1°
Sets 19:01:43 0° 37° (NE) 3,143 - -26.6°
